Location: Palmerston North
(40.3500°S, 175.6170°E)
Time: 03:46:10
(UTC+13:00)

Meteor 1-26 Rocket - Pass Details

Date: 24 January 2019
Orbit: 823 x 912 km, 81.3° (Epoch: 22 February)

Event Time Altitude Azimuth Distance (km) Brightness Sun altitude
Exits shadow 22:56:01 33° 7° (N) 1,446 5.0 -20.5°
Maximum altitude 22:58:42 73° 83° (E) 927 4.2 -20.9°
Drops below altitude 10° 23:04:27 10° 167° (SSE) 2,534 7.2 -21.5°
Sets 23:06:52 0° 168° (SSE) 3,465 8.0 -21.8°
